Flag for Germany Weather past 2 weeks in Filderstadt, Baden-Württemberg, Germany

Now
62 °F

Overcast.


Feels Like: 62 °F
Forecast: 38 / 42 °F
Wind: 7 mph from Southwest

Location: Stuttgart-Echterdingen

Current Time: Oct 21, 2014 at 5:57:13 PM

Latest Report: Oct 21, 2014 at 4:00 PM


Visibility: 44 mi

Pressure: 29.75 "Hg

Humidity: 67%

Dew point: 50 °F

Location of FilderstadtLocation

Historic Weather in Filderstadt — Graph

°F

Filderstadt temperature yesterday

Maximum temperature yesterday: 67 °F (at 2:00 PM)
Minimum temperature yesterday: 57 °F (at 7:00 AM)
Average temperature yesterday: 61 °F

Past Weeks' High & Low Weather Summary

 TemperatureHumidityPressure
High78 °F (Oct 9, 3:00 PM)99% (Oct 18, 2:00 AM)30.22 "Hg (Oct 18, 2:00 AM)
Low44 °F (Oct 18, 8:00 AM)34% (Oct 9, 4:00 PM)29.74 "Hg (Oct 15, 3:00 PM)
Average59 °F84%29.93 "Hg
* Reported Oct 6 4:00 PM — Oct 21 4:00 PM, Filderstadt, Weather by CustomWeather, © 2014

Note: Actual official high and low records may vary slightly from our data, if they occured in-between our weather recording intervals... More about our weather records

Advertising

Filderstadt weather history for previous 24 hours

 ConditionsComfort  
Time TempWeatherWind HumidityBarometerVisibility
4:00 PM
Oct 21
62 °FOvercast.7 mph67%29.75 "Hg43 mi
3:00 PM64 °FOvercast.6 mph61%29.78 "Hg43 mi
2:00 PM62 °FPartly sunny.5 mph60%29.81 "Hg43 mi
1:00 PM61 °FOvercast.7 mph59%29.86 "Hg47 mi
12:00 PM61 °FPassing clouds.6 mph70%29.88 "Hg40 mi
10:00 AM56 °FPassing clouds.1 mph87%29.93 "Hg31 mi
9:00 AM52 °FScattered clouds.1 mph91%29.96 "Hg37 mi
8:00 AM52 °FOvercast.No wind89%29.96 "Hg37 mi
7:00 AM52 °FOvercast.1 mph91%29.96 "Hg40 mi
6:00 AM53 °FOvercast.1 mph89%29.98 "Hg37 mi
4:00 AM53 °FPassing clouds.1 mph87%30.01 "Hg31 mi
3:00 AM54 °FPassing clouds.5 mph83%30.03 "Hg37 mi
2:00 AM57 °FOvercast.5 mph83%30.02 "Hg28 mi
1:00 AM57 °FOvercast.3 mph86%30.01 "Hg28 mi
12:00 AM57 °FLight rain. Low clouds.2 mph90%30.01 "Hg12 mi
11:00 PM
Oct 20
58 °FLight rain. Overcast.3 mph85%30.03 "Hg16 mi
10:00 PM60 °FLight rain. Overcast.3 mph85%30.03 "Hg16 mi
9:00 PM60 °FOvercast.1 mph87%30.03 "Hg22 mi
8:00 PM61 °FLight rain. Overcast.2 mph82%30.03 "Hg19 mi
7:00 PM62 °FOvercast.2 mph80%30.03 "Hg19 mi
6:00 PM63 °FOvercast.5 mph78%30.04 "Hg22 mi
Weather by CustomWeather, © 2014

See weather overviewHow to use our weather pages